Regional Weather Roundup
Issued by NWS

Home | Current Version | Previous Version | Graphics & Text | Print | Product List | Glossary On
Versions: 1 2 3 4 5 6 7 8 9 10 11 12 13 14 15 16 17 18 19 20 21 22 23 24 25 26 27 28 29 30 31 32 33 34 35 36 37 38 39 40 41 42 43 44 45 46 47 48 49 50
000
ASUS43 KLMK 020310
RWRKY
KENTUCKY REGIONAL WEATHER ROUNDUP
NATIONAL WEATHER SERVICE LOUISVILLE KY
1100 PM EDT MON SEP 01 2014

NOTE "FAIR" INDICATES FEW OR NO CLOUDS BELOW 12,000 FEET
WITH NO SIGNIFICANT WEATHER AND/OR OBSTRUCTIONS TO VISIBILITY.

KYZ001>023-026-027-061>063-070>075-020400-
WESTERN AND SOUTH CENTRAL KENTUCKY

CITY           SKY/WX    TMP DP  RH WIND       PRES   REMARKS
PADUCAH        CLEAR     80  73  79 S5        29.95R
HENDERSON      MOCLDY    75  72  88 S6        29.95F
OWENSBORO      CLEAR     75  73  94 CALM        N/A
HOPKINSVILLE   PTCLDY    80  72  76 S6        29.99F
BOWLING GREEN  PTCLDY    78  69  73 S5        30.01S
GLASGOW        CLEAR     76  68  77 CALM      30.02F
$$

KYZ024-025-028>034-038-045-046-053-020400-
NORTH CENTRAL KENTUCKY

CITY           SKY/WX    TMP DP  RH WIND       PRES   REMARKS
LOUISVILLE/SDF CLEAR     80  72  76 S8        29.97F
LOUISVILLE/LOU CLEAR     79  72  79 S5        29.98S
FORT KNOX      PTCLDY    74  74 100 S5        29.99S
$$

KYZ035>037-039>044-047>052-055>060-089>105-020400-
NORTHEAST KENTUCKY

CITY           SKY/WX    TMP DP  RH WIND       PRES   REMARKS
LEXINGTON      MOCLDY    74  71  91 S7        30.03S
COVINGTON      PTCLDY    77  69  76 SW8       29.97R
FRANKFORT      CLEAR     75  72  90 S3        30.00S
$$

KYZ054-064>069-076>088-106>120-020400-
SOUTHEAST KENTUCKY

CITY           SKY/WX    TMP DP  RH WIND       PRES   REMARKS
JACKSON        MOCLDY    76  67  73 VRB3      30.07S
LONDON         PTCLDY    76  68  76 S3        30.08S
SOMERSET       PTCLDY    72  70  94 CALM      30.07S
MIDDLESBORO    PTCLDY    73  71  94 CALM      30.10R
MONTICELLO     CLEAR     71  69  93 CALM      30.08R
$$



USA.gov is the U.S. government's official web portal to all federal, state and local government web resources and services.